Regional Weather Roundup
Issued by NWS

Home | Current Version | Previous Version | Graphics & Text | Print | Product List | Glossary On
Versions: 1 2 3 4 5 6 7 8 9 10 11 12 13 14 15 16 17 18 19 20 21 22 23 24 25 26 27 28 29 30 31 32 33 34 35 36 37 38 39 40 41 42 43 44 45 46 47 48 49 50
000
ASUS43 KFSD 262110
RWRSD

WEATHER ROUNDUP FOR SOUTH DAKOTA
NATIONAL WEATHER SERVICE SIOUX FALLS SD
400 PM CDT SAT MAY 26 2018

NOTE: "FAIR" INDICATES FEW OR NO CLOUDS BELOW 12,000 FEET WITH NO
SIGNIFICANT WEATHER AND/OR OBSTRUCTIONS TO VISIBILITY.


SDZ001>005-009-010-012>017-262200-
NORTHWEST AND NORTH CENTRAL SOUTH DAKOTA

CITY           SKY/WX    TMP DP  RH WIND       PRES   REMARKS
BUFFALO          N/A     90  52  27 SE21G30   29.67F
FAITH            N/A     87  59  38 SE15G23   29.74F
MOBRIDGE       SUNNY     89  59  36 SE5       29.72F
$$

SDZ012>016-024>037-041>051-057-063-072>074-262200-
SOUTHWEST AND SOUTH CENTRAL SOUTH DAKOTA

CITY           SKY/WX    TMP DP  RH WIND       PRES   REMARKS
RAPID CTY ARPT SUNNY     87  63  44 S14       29.74F
PIERRE         SUNNY     91  62  37 SE15      29.72F
CUSTER         SUNNY     82  47  29 SE10      29.91F
ELLSWORTH AFB  SUNNY     88  61  40 S15G21    29.73F
PHILIP         SUNNY     91  63  39 SE17G23   29.70F
PINE RIDGE     SUNNY     93  53  25 S18G24    29.76F
SPEARFISH      LGT RAIN  86  63  45 E7G15     29.76S
WINNER         FAIR      91  62  37 S9        29.76F
$$

SDZ004>011-016>023-039-040-262200-
NORTHEAST SOUTH DAKOTA

CITY           SKY/WX    TMP DP  RH WIND       PRES   REMARKS
ABERDEEN       SUNNY     97  50  20 NW6       29.72F
WATERTOWN      SUNNY     88  54  31 NW8       29.77S
BROOKINGS      SUNNY     91  54  28 NW7       29.76F
SISSETON         N/A     94  51  23 W8G20     29.70F
$$

SDZ017-020-022-023-036>040-048>070-262200-
SOUTHEAST SOUTH DAKOTA

CITY           SKY/WX    TMP DP  RH WIND       PRES   REMARKS
SIOUX FALLS    MOSUNNY   90  60  36 NW8       29.75F
HURON          SUNNY     91  60  35 S7        29.73F
CHAMBERLAIN    SUNNY     93  60  32 S7        29.75F
MITCHELL       SUNNY     94  59  31 W5        29.74F
YANKTON        SUNNY     95  54  25 CALM      29.75F
$$

ABBREVIATIONS USED IN REMARKS
   TC - TEMPERATURE IN CELSIUS
  WCI - WIND CHILL INDEX
   HX - HEAT INDEX
  VSB - VISIBILITY





USA.gov is the U.S. government's official web portal to all federal, state and local government web resources and services.